EN

Hourly Weather Luki

Today, 25 November, Wednesday

Time Temperature Precipitation Wind Pressure Humidity
00:00 +1°C° 0.2 mm 3 mps 742 mmHg 95%
01:00 +2°C° 0.2 mm 2 mps 742 mmHg 96%
02:00 +3°C° 0.2 mm 1 mps 742 mmHg 98%
03:00 +3°C° 0.4 mm 1 mps 742 mmHg 98%
04:00 +3°C° 0.4 mm 2 mps 742 mmHg 98%
05:00 +3°C° 0.4 mm 2 mps 741 mmHg 98%
06:00 +4°C° 0.6 mm 1 mps 742 mmHg 98%
07:00 +4°C° 0.6 mm 1 mps 742 mmHg 98%
08:00 +3°C° 0.6 mm 0 mps 742 mmHg 98%
09:00 +3°C° 0.3 mm 0 mps 742 mmHg 98%
10:00 +3°C° 0.3 mm 0 mps 742 mmHg 97%
11:00 +3°C° 0.3 mm 0 mps 742 mmHg 96%
12:00 +4°C° 0 mm 0 mps 743 mmHg 96%
13:00 +4°C° 0 mm 0 mps 743 mmHg 95%
14:00 +5°C° 0 mm 1 mps 743 mmHg 94%
15:00 +4°C° 0 mm 0 mps 744 mmHg 94%
16:00 +3°C° 0 mm 0 mps 744 mmHg 94%
17:00 +3°C° 0 mm 0 mps 744 mmHg 94%
18:00 +3°C° 0 mm 0 mps 744 mmHg 94%
19:00 +2°C° 0 mm 0 mps 745 mmHg 94%
20:00 +3°C° 0 mm 1 mps 745 mmHg 93%
21:00 +3°C° 0 mm 1 mps 745 mmHg 93%
22:00 +2°C° 0 mm 2 mps 745 mmHg 93%
23:00 +3°C° 0 mm 2 mps 745 mmHg 93%

Tomorrow, 26 November, Thursday

Time Temperature Precipitation Wind Pressure Humidity
00:00 +2°C° 0.2 mm 3 mps 745 mmHg 94%
01:00 +2°C° 0.2 mm 3 mps 745 mmHg 95%
02:00 +2°C° 0.2 mm 3 mps 745 mmHg 96%
03:00 +3°C° 0.3 mm 3 mps 745 mmHg 96%
04:00 +3°C° 0.3 mm 3 mps 744 mmHg 97%
05:00 +4°C° 0.3 mm 3 mps 744 mmHg 97%
06:00 +4°C° 0 mm 3 mps 744 mmHg 97%
07:00 +4°C° 0 mm 3 mps 744 mmHg 97%
08:00 +4°C° 0 mm 3 mps 744 mmHg 97%
09:00 +4°C° 0 mm 4 mps 744 mmHg 94%
10:00 +4°C° 0 mm 4 mps 744 mmHg 92%
11:00 +3°C° 0 mm 5 mps 743 mmHg 89%
12:00 +3°C° 0 mm 5 mps 743 mmHg 84%
13:00 +4°C° 0 mm 4 mps 743 mmHg 79%
14:00 +3°C° 0 mm 4 mps 743 mmHg 74%
15:00 +3°C° 0 mm 4 mps 743 mmHg 76%
16:00 +1°C° 0 mm 4 mps 742 mmHg 78%
17:00 0°C° 0 mm 4 mps 742 mmHg 80%
18:00 -1°C° 0 mm 4 mps 742 mmHg 82%
19:00 -1°C° 0 mm 4 mps 742 mmHg 83%
20:00 -2°C° 0 mm 4 mps 742 mmHg 85%
21:00 -2°C° 0 mm 4 mps 741 mmHg 86%
22:00 -2°C° 0 mm 4 mps 741 mmHg 87%
23:00 -2°C° 0 mm 4 mps 741 mmHg 88%

Day after tomorrow, 27 November, Friday

Time Temperature Precipitation Wind Pressure Humidity
00:00 -2°C° 0 mm 4 mps 740 mmHg 88%
01:00 -2°C° 0 mm 4 mps 740 mmHg 89%
02:00 -2°C° 0 mm 4 mps 740 mmHg 89%
03:00 -2°C° 0 mm 4 mps 740 mmHg 90%
04:00 -2°C° 0 mm 4 mps 739 mmHg 90%
05:00 -2°C° 0 mm 4 mps 739 mmHg 91%
06:00 -2°C° 0 mm 4 mps 739 mmHg 91%
07:00 -2°C° 0 mm 4 mps 739 mmHg 92%
08:00 -2°C° 0 mm 4 mps 739 mmHg 93%
09:00 -2°C° 0.1 mm 4 mps 739 mmHg 93%
10:00 -1°C° 0.1 mm 4 mps 739 mmHg 93%
11:00 -1°C° 0.1 mm 4 mps 739 mmHg 93%
12:00 -1°C° 0.7 mm 4 mps 738 mmHg 95%
13:00 0°C° 0.7 mm 4 mps 738 mmHg 96%
14:00 +1°C° 0.7 mm 3 mps 738 mmHg 97%
15:00 +1°C° 0.2 mm 3 mps 738 mmHg 97%
16:00 +1°C° 0.2 mm 3 mps 738 mmHg 96%
17:00 +1°C° 0.2 mm 3 mps 739 mmHg 96%
18:00 +1°C° 0 mm 3 mps 739 mmHg 96%
19:00 +1°C° 0 mm 3 mps 739 mmHg 96%
20:00 +1°C° 0 mm 3 mps 740 mmHg 95%
21:00 0°C° 0.2 mm 3 mps 740 mmHg 96%
22:00 0°C° 0.2 mm 3 mps 740 mmHg 96%
23:00 0°C° 0.2 mm 3 mps 741 mmHg 97%

28 November, Saturday

Time Temperature Precipitation Wind Pressure Humidity
00:00 0°C° 0.2 mm 3 mps 741 mmHg 96%
01:00 -1°C° 0.2 mm 3 mps 741 mmHg 96%
02:00 -1°C° 0.2 mm 3 mps 742 mmHg 95%
03:00 -1°C° 0 mm 3 mps 742 mmHg 95%
04:00 -2°C° 0 mm 2 mps 742 mmHg 95%
05:00 -2°C° 0 mm 2 mps 743 mmHg 95%
06:00 -2°C° 0 mm 2 mps 743 mmHg 95%
07:00 -2°C° 0 mm 2 mps 744 mmHg 96%
08:00 -2°C° 0 mm 2 mps 744 mmHg 96%
09:00 -2°C° 0 mm 2 mps 745 mmHg 93%
10:00 -1°C° 0 mm 2 mps 745 mmHg 91%
11:00 -1°C° 0 mm 2 mps 746 mmHg 89%
12:00 -1°C° 0 mm 2 mps 746 mmHg 88%
13:00 -1°C° 0 mm 2 mps 746 mmHg 87%
14:00 +1°C° 0 mm 2 mps 746 mmHg 86%
15:00 -1°C° 0 mm 2 mps 747 mmHg 87%
16:00 -1°C° 0 mm 2 mps 747 mmHg 88%
17:00 -1°C° 0 mm 2 mps 748 mmHg 88%
18:00 -1°C° 0 mm 2 mps 748 mmHg 90%
19:00 -1°C° 0 mm 2 mps 748 mmHg 93%
20:00 -1°C° 0 mm 2 mps 749 mmHg 95%
21:00 -1°C° 0 mm 2 mps 749 mmHg 95%
22:00 -1°C° 0 mm 2 mps 749 mmHg 96%
23:00 -1°C° 0 mm 2 mps 750 mmHg 96%

29 November, Sunday

Time Temperature Precipitation Wind Pressure Humidity
00:00 -1°C° 0 mm 3 mps 750 mmHg 96%
01:00 -1°C° 0 mm 3 mps 750 mmHg 95%
02:00 -1°C° 0 mm 3 mps 750 mmHg 95%
03:00 -1°C° 0 mm 3 mps 751 mmHg 94%
04:00 -1°C° 0 mm 3 mps 751 mmHg 92%
05:00 -1°C° 0 mm 3 mps 751 mmHg 91%
06:00 -1°C° 0 mm 3 mps 751 mmHg 89%
07:00 -1°C° 0 mm 3 mps 752 mmHg 88%
08:00 -2°C° 0 mm 4 mps 752 mmHg 87%
09:00 -2°C° 0 mm 4 mps 752 mmHg 85%
10:00 -2°C° 0 mm 4 mps 752 mmHg 83%
11:00 -1°C° 0 mm 5 mps 752 mmHg 82%
12:00 -1°C° 0 mm 5 mps 752 mmHg 81%
13:00 -2°C° 0 mm 5 mps 752 mmHg 80%
14:00 -2°C° 0 mm 5 mps 752 mmHg 79%
15:00 -2°C° 0 mm 5 mps 752 mmHg 81%
16:00 -2°C° 0 mm 5 mps 752 mmHg 82%
17:00 -4°C° 0 mm 5 mps 752 mmHg 83%
18:00 -4°C° 0 mm 6 mps 752 mmHg 83%
19:00 -4°C° 0 mm 6 mps 752 mmHg 83%
20:00 -4°C° 0 mm 6 mps 752 mmHg 84%
21:00 -4°C° 0 mm 6 mps 752 mmHg 85%
22:00 -4°C° 0 mm 6 mps 752 mmHg 86%
23:00 -4°C° 0 mm 6 mps 752 mmHg 88%

30 November, Monday

Time Temperature Precipitation Wind Pressure Humidity
00:00 -4°C° 0.1 mm 6 mps 752 mmHg 88%
01:00 -4°C° 0.1 mm 6 mps 751 mmHg 89%
02:00 -4°C° 0.1 mm 7 mps 751 mmHg 89%
03:00 -4°C° 0 mm 7 mps 751 mmHg 89%
04:00 -4°C° 0 mm 7 mps 751 mmHg 89%
05:00 -3°C° 0 mm 7 mps 751 mmHg 90%
06:00 -3°C° 0.1 mm 7 mps 751 mmHg 91%
07:00 -3°C° 0.1 mm 7 mps 751 mmHg 92%
08:00 -3°C° 0.1 mm 7 mps 751 mmHg 94%
09:00 -2°C° 0 mm 6 mps 752 mmHg 93%
10:00 -2°C° 0 mm 6 mps 752 mmHg 92%
11:00 -1°C° 0 mm 6 mps 752 mmHg 91%
12:00 -1°C° 0 mm 6 mps 752 mmHg 91%
13:00 0°C° 0 mm 5 mps 752 mmHg 92%
14:00 +1°C° 0 mm 5 mps 752 mmHg 92%
15:00 0°C° 0 mm 5 mps 753 mmHg 93%
16:00 0°C° 0 mm 5 mps 753 mmHg 94%
17:00 0°C° 0 mm 5 mps 753 mmHg 95%
18:00 0°C° 0 mm 5 mps 753 mmHg 95%
19:00 0°C° 0 mm 5 mps 753 mmHg 95%
20:00 0°C° 0 mm 5 mps 754 mmHg 95%
21:00 0°C° 0 mm 5 mps 754 mmHg 95%
22:00 0°C° 0 mm 4 mps 754 mmHg 95%
23:00 0°C° 0 mm 4 mps 755 mmHg 95%
Show more